sat.trackr.live / text

‹ back to catalog

ICEYE-X37

NORAD 59102 · 2024-043E

PAYLOAD ACTIVE UNKNOWN

§ Identity

Operator
Country
US
Launch date
2024-03-04
Launch site
AFWTR
Launch vehicle
Mass (kg)
RCS (m²)

External: N2YO · Heavens-Above · Gunter

§ Orbital elements

Epoch: 2026-05-25T03:00:34.050240Z

Period
95.62 min
Inclination
97.8280°
Eccentricity
0.0016543
Mean motion
15.05884388 rev/d
Perigee alt
537.3 km
Apogee alt
560.3 km
Semi-major
6,926.9 km
B*
2.7645e-4
RAAN
281.7716°
Arg perigee
89.0555°
Mean anomaly
271.2567°
Rev number
12,161

§ Raw data

ICEYE-X371 59102U 24043E   26145.12539410  .00003964  00000+0  27645-3 0  99912 59102  97.8280 281.7716 0016543  89.0555 271.2567 15.05884388121617

JSON: /api/v1/satellites/59102 · /tle

For live sub-satellite position, see the globe view (requires WebGL).

§ Visibility from observer

Set your observer location to see the next 7 days of passes ≥ 10°. The values pass through the URL so the page stays shareable.

No JS? Fill the form by hand. The geolocation button needs JavaScript.

§ Radio — SatNOGS DB

ModeDescriptionDownlinkUplink
BPSK S-band telemetry 2.264 GHz

1 transmitter · refreshed weekly from db.satnogs.org